Wind_Speed
20 18 15 12 9 7 6 7 6 7 8 7 8 8 7 6 6 6 7 8 8 8 8 9 10 10 9 10 10 10 10 10 9 8 8 8 8 9 9 9 9 9 8 8 8 8 8 8 9 10 11 10 9 10 12 15 16 16 15 14 13 13 16 19 20 21 20 21 24 26 26 26 26 26 26 26 27 27 28 29 30 31 33 34 35 36
24 21 19 16 13 10 8 8 6 6 7 7 7 7 7 6 5 4 4 5 6 6 6 6 6 6 6 7 9 9 9 8 7 7 7 8 8 9 9 9 9 10 10 10 9 8 7 8 8 10 12 12 11 11 12 14 16 17 15 14 13 11 14 19 22 22 21 21 24 26 27 27 28 28 28 28 29 30 30 31 32 33 34 35 36 38
27 23 22 20 17 14 11 10 9 7 6 7 7 7 7 7 6 5 4 3 3 4 5 5 4 4 3 4 6 7 7 7 7 7 7 8 8 9 9 9 9 10 11 11 11 9 8 9 8 9 11 12 12 13 13 15 17 17 16 14 12 10 13 21 25 24 23 23 24 25 27 28 30 30 31 31 32 33 32 32 32 34 35 37 38 39
30 26 25 24 22 18 15 14 12 10 7 7 8 8 7 7 7 6 6 5 3 2 2 2 3 3 3 2 3 4 5 6 6 6 6 6 7 7 8 9 9 9 11 11 11 10 10 9 7 8 11 11 12 13 15 16 17 17 17 15 12 12 16 22 25 25 25 25 25 26 27 29 31 32 34 34 35 35 34 33 34 34 36 37 40 42
32 28 27 27 25 22 19 17 16 13 11 9 9 9 8 8 8 7 7 7 6 4 2 1 1 2 2 2 3 4 3 4 4 4 4 5 5 6 7 8 8 8 10 11 11 10 10 10 8 9 10 10 11 13 15 17 17 18 18 17 15 16 19 22 24 25 26 27 27 27 28 29 32 34 35 36 37 37 37 37 37 38 37 37 38 43
36 31 30 30 28 25 23 21 19 17 15 12 12 11 10 10 10 9 8 8 9 8 6 4 3 3 3 3 3 4 5 4 3 2 2 3 4 5 6 7 7 7 9 10 11 10 10 10 10 11 11 10 11 14 16 17 18 18 19 19 19 19 21 22 23 25 26 27 28 29 29 31 33 34 35 37 38 39 39 40 42 42 42 39 37 40
38 34 32 33 32 29 26 24 22 20 18 16 15 13 11 11 11 11 10 9 9 10 9 7 7 6 5 5 4 5 6 6 6 4 3 4 5 6 6 7 7 8 9 10 11 11 11 11 12 13 14 13 13 15 17 18 19 20 21 22 22 23 24 25 25 26 27 28 29 30 31 32 33 34 35 37 39 39 40 41 44 46 45 42 39 39
41 37 35 36 35 32 29 28 26 24 22 20 18 17 15 13 12 13 12 11 10 11 12 10 9 9 8 8 7 6 6 7 8 8 7 6 7 8 8 8 9 9 10 11 12 13 12 13 13 14 15 15 16 17 19 20 21 23 24 25 25 26 27 28 28 28 28 29 30 31 32 34 35 37 38 39 40 39 40 42 45 46 45 41 37 37
45 40 38 39 38 35 33 32 29 27 27 25 22 20 19 16 14 14 14 13 12 12 13 12 11 11 11 10 10 9 8 8 9 11 11 10 10 11 11 10 10 11 12 12 13 14 15 14 14 15 16 17 18 20 21 22 22 24 26 27 27 29 30 31 30 30 29 30 31 33 34 36 38 40 41 42 42 40 41 44 45 45 43 39 35 36
45 41 41 40 38 37 37 35 32 31 31 28 25 24 22 20 18 16 16 16 15 14 14 13 12 13 13 12 11 10 9 9 9 11 12 12 13 13 14 13 12 12 14 15 15 16 17 17 16 16 17 18 20 23 24 23 23 25 28 29 29 31 32 32 32 32 31 31 33 35 38 39 41 43 43 44 44 42 44 46 46 46 45 41 37 37
45 43 42 39 39 40 40 37 35 36 35 32 29 27 25 25 22 19 18 18 17 17 16 14 14 14 15 15 13 11 11 11 10 10 12 13 14 14 15 17 16 14 14 16 17 17 18 19 19 19 19 19 21 23 24 24 24 27 30 31 31 31 32 33 34 33 32 32 35 39 41 41 42 44 45 45 44 43 45 47 48 49 48 44 39 37
46 43 40 40 41 43 42 39 38 40 39 34 32 30 29 29 26 22 22 21 20 20 19 17 15 15 17 18 16 14 14 14 13 12 13 14 15 16 17 19 19 16 15 17 18 19 20 21 22 21 21 21 22 24 25 25 26 28 30 31 32 32 33 33 34 34 34 35 38 40 41 41 43 46 46 45 45 44 45 47 49 50 50 47 42 39
47 44 42 42 44 45 45 42 40 42 42 38 36 34 33 33 29 26 26 25 24 24 22 20 18 17 20 21 19 18 17 16 16 15 15 15 16 17 19 21 23 20 18 19 19 20 21 22 24 24 24 24 25 26 27 27 28 29 31 32 33 34 34 34 35 35 36 38 39 41 41 42 44 47 47 47 47 46 46 47 50 53 53 51 46 42
49 47 46 45 45 47 47 43 42 44 45 42 39 37 38 37 32 29 29 29 28 27 26 23 20 20 22 23 21 21 21 19 18 17 18 18 18 18 19 21 24 24 23 22 22 22 22 22 25 27 27 26 27 28 29 29 30 31 32 33 35 36 36 37 38 38 39 40 41 42 43 44 46 48 49 49 49 49 47 48 52 55 56 54 49 44
51 48 46 46 47 49 49 46 46 48 49 45 41 40 41 38 33 33 34 33 32 30 27 26 24 24 25 25 23 23 23 23 22 21 21 22 22 22 21 21 23 25 26 27 26 25 24 24 25 27 29 29 29 30 31 31 32 32 34 35 36 37 38 39 40 41 42 42 43 44 45 46 48 49 51 52 52 52 48 48 53 57 58 55 50 46
52 49 48 48 49 50 51 50 50 51 50 46 42 41 41 39 37 38 37 36 35 31 29 29 28 28 29 27 26 26 25 26 26 25 25 25 26 26 26 25 25 25 28 30 30 28 28 28 28 28 30 31 32 32 32 33 34 35 35 36 38 38 39 41 42 43 44 44 45 46 47 49 50 51 54 55 54 52 47 48 55 60 59 54 49 46
55 51 51 51 51 50 52 53 52 51 50 48 43 41 43 44 43 42 39 37 37 34 32 33 32 32 32 29 28 28 28 28 29 29 29 30 31 30 30 30 29 28 30 32 33 32 31 31 31 31 32 33 34 35 35 35 36 37 38 38 40 40 41 42 44 45 46 47 47 48 49 50 52 54 55 55 53 49 46 50 57 61 58 51 44 43
58 57 57 56 55 54 55 56 54 52 51 50 45 44 47 48 45 42 40 38 38 37 36 36 35 35 34 31 30 31 31 30 31 31 32 33 34 33 33 34 34 33 33 34 35 36 34 34 34 34 35 35 37 37 38 38 38 39 40 41 42 43 43 44 45 46 48 49 49 50 51 52 53 55 56 54 51 47 48 54 59 60 55 46 40 42
62 61 62 60 58 57 57 58 56 53 53 51 48 47 48 48 46 43 41 40 41 40 39 38 38 38 36 33 32 33 34 34 34 34 35 36 36 35 35 35 35 36 36 36 37 38 38 37 37 37 37 38 39 40 40 41 41 41 41 42 44 44 45 46 47 48 49 50 51 51 52 53 54 56 56 54 50 49 53 58 58 57 52 44 41 44
65 64 64 62 59 59 60 60 57 55 54 52 50 48 46 48 49 47 43 43 43 42 41 40 41 41 39 36 34 35 37 36 36 37 38 40 39 38 37 37 36 37 38 38 39 40 40 40 40 40 39 39 40 41 42 43 43 43 43 43 44 45 47 48 49 49 50 51 52 52 52 53 55 56 57 55 51 52 56 57 56 55 52 47 46 47
68 67 66 64 62 61 61 59 58 56 55 54 51 49 48 49 52 51 47 45 45 44 43 43 44 44 42 40 38 38 38 37 37 38 40 41 41 40 41 40 39 39 39 39 40 40 41 42 42 42 41 41 41 42 43 44 44 44 44 44 45 46 48 49 50 52 52 52 53 53 53 54 56 57 58 57 55 56 57 55 54 55 54 53 51 49
68 68 68 66 64 63 59 58 61 60 57 55 53 51 51 52 53 53 49 47 47 46 46 46 46 45 43 43 43 41 39 38 39 41 41 41 41 42 42 42 42 42 41 41 42 42 43 43 43 43 43 42 42 42 43 44 45 45 45 46 46 47 48 50 51 52 53 53 53 54 55 57 58 59 60 59 58 58 57 55 55 55 55 57 55 52
70 71 72 69 66 63 60 60 64 63 59 57 56 54 54 53 53 53 52 51 51 49 48 48 47 45 45 46 47 44 42 41 42 43 43 41 40 42 43 44 44 44 42 42 43 44 44 44 45 44 44 43 43 42 43 44 45 46 47 47 48 49 50 51 51 52 53 54 55 57 59 59 59 60 61 61 60 58 57 58 57 56 57 59 59 56
75 74 73 71 68 66 65 64 66 66 63 59 57 56 55 54 54 54 55 56 54 51 50 49 47 46 46 47 49 48 45 45 46 45 43 42 41 43 45 46 46 46 44 43 44 45 45 45 45 45 44 44 43 42 43 44 45 47 48 49 50 51 51 52 53 54 54 56 60 60 58 59 60 62 63 62 60 59 59 60 60 60 59 59 60 59
78 76 74 74 72 69 68 66 66 66 64 60 58 58 57 57 56 57 59 59 56 53 52 51 49 49 49 49 50 50 48 49 49 47 44 44 44 44 46 48 49 49 47 46 46 47 47 46 46 46 45 45 43 43 44 44 46 47 49 51 52 53 53 53 54 55 56 59 60 57 57 61 64 65 64 62 62 62 61 62 63 63 59 57 59 59
79 77 76 77 75 71 68 65 64 65 65 63 61 60 59 60 60 60 62 60 57 55 55 54 52 52 52 51 51 51 50 51 51 49 48 47 46 46 48 50 51 51 50 48 48 49 49 48 47 47 47 46 45 45 45 45 47 48 49 51 53 53 54 54 56 57 58 56 55 57 61 64 64 64 63 63 65 66 65 64 64 61 55 54 57 58
80 78 79 79 77 73 70 67 67 68 68 67 66 64 63 63 63 64 65 62 59 59 59 58 57 56 54 52 52 52 52 52 52 51 50 49 47 48 50 52 53 53 52 51 50 50 49 49 49 49 48 47 46 46 46 46 47 48 49 50 52 54 55 56 58 57 55 53 54 59 63 61 61 62 62 63 66 67 66 64 61 56 53 53 55 57
80 79 79 80 78 75 73 72 71 71 71 70 70 69 67 66 66 67 66 64 62 62 63 62 60 58 55 53 53 54 54 54 54 53 51 49 48 50 52 53 53 54 54 53 51 50 51 51 50 50 49 49 48 48 47 47 48 48 48 49 51 54 56 58 58 56 55 53 52 55 58 58 58 60 61 64 67 67 64 60 57 55 53 52 55 60
80 79 79 79 78 77 76 74 73 73 73 72 71 71 69 68 68 68 68 66 65 64 65 65 63 59 56 54 55 56 56 56 55 53 50 50 50 51 52 54 55 55 55 53 50 51 52 52 51 51 51 50 50 49 49 49 48 48 48 49 51 54 57 59 56 53 54 53 51 53 55 57 59 63 64 66 68 64 57 56 58 58 55 55 59 64
78 77 77 77 78 78 77 75 73 74 74 73 72 72 71 71 71 71 70 69 68 68 68 68 65 60 57 57 59 60 59 58 57 54 51 52 52 52 55 57 57 56 56 53 49 50 53 53 52 52 53 52 52 51 50 50 49 48 49 50 51 53 54 54 53 52 52 50 47 50 56 60 64 66 67 68 69 62 55 56 61 62 60 61 64 67
77 76 75 76 77 78 77 76 74 74 74 73 72 71 73 74 74 74 73 73 72 71 70 69 65 61 60 62 64 64 63 60 58 56 55 55 54 54 57 60 59 57 56 54 50 50 53 54 54 54 53 53 53 52 51 51 50 49 50 50 49 50 52 53 52 49 47 44 43 50 60 66 66 65 66 67 64 57 54 57 60 63 64 66 69 71
78 76 75 75 76 76 76 75 74 72 71 70 71 72 73 74 75 75 74 74 74 73 72 70 67 64 65 67 67 67 65 62 60 60 59 58 57 57 59 61 62 60 58 55 52 51 52 54 55 55 54 53 53 52 51 51 51 50 49 48 47 49 52 52 49 47 48 49 50 55 63 65 63 61 60 58 54 53 55 58 61 64 66 68 71 73
78 77 76 76 76 76 75 74 73 71 69 70 72 73 73 73 74 75 75 75 75 74 73 71 69 68 69 71 70 69 67 65 64 64 62 61 60 60 62 64 64 64 62 59 56 53 53 54 56 56 56 55 54 53 53 53 53 51 49 47 46 47 47 47 49 51 53 53 53 56 59 58 54 51 48 47 50 54 56 58 62 66 68 70 73 75
79 79 79 78 78 77 76 75 73 71 70 70 71 72 71 71 73 75 75 74 73 73 72 71 70 70 72 73 73 72 71 70 68 67 66 64 63 63 65 67 67 67 65 62 59 57 56 57 58 58 58 58 57 56 56 56 54 52 50 47 45 46 45 45 49 52 53 51 51 51 52 48 43 42 46 50 55 58 61 64 69 71 73 75 77 80
80 81 81 80 79 77 76 74 74 73 71 69 69 70 70 69 71 73 73 71 70 71 71 70 70 71 72 73 74 75 74 73 72 71 69 67 65 65 67 69 69 69 66 64 63 62 62 62 61 60 60 60 60 59 58 57 55 53 51 46 42 41 41 43 46 50 51 50 46 45 45 42 40 46 55 60 62 65 68 71 74 75 77 80 83 86
82 82 82 81 79 77 76 75 74 74 72 69 68 70 69 69 69 70 70 69 68 70 71 70 69 69 70 73 75 76 75 74 73 73 70 67 66 67 68 70 71 69 67 66 66 66 67 66 64 63 63 63 62 62 61 59 58 55 53 48 43 40 40 44 49 49 48 46 41 39 42 44 47 53 60 64 65 69 72 74 76 79 81 84 87 90
83 83 83 81 80 78 77 76 75 73 72 71 70 69 69 69 70 70 71 71 71 72 73 72 71 69 69 70 72 74 74 73 73 73 70 68 68 68 69 71 72 70 68 68 69 70 70 70 67 66 65 63 62 62 62 61 60 57 54 52 49 44 42 48 53 53 51 49 46 45 47 49 52 56 59 62 66 70 73 74 77 79 83 87 91 94
84 85 84 83 81 80 78 76 75 73 73 73 73 72 72 73 74 74 75 76 75 75 75 74 72 70 69 69 70 70 71 72 72 71 69 68 69 70 71 73 73 72 71 71 71 72 71 71 69 67 65 64 64 65 65 63 61 59 57 56 54 49 47 52 57 58 59 58 56 55 55 56 59 62 63 67 71 75 77 79 81 84 89 93 95 97
85 86 85 83 82 81 79 78 77 77 77 77 77 77 77 78 78 77 77 79 78 77 76 75 73 72 70 70 71 70 71 71 71 69 69 70 71 72 73 75 76 75 73 72 71 71 71 72 70 67 65 66 66 66 66 65 64 63 61 60 58 56 54 56 58 60 63 65 66 67 66 65 68 70 73 75 78 82 86 88 90 92 94 95 96 98
86 86 84 83 82 81 80 80 81 81 81 81 80 80 79 79 79 77 77 80 80 78 77 77 76 74 72 72 72 72 72 73 72 71 71 71 72 73 74 75 76 75 73 71 70 70 72 72 72 70 68 66 66 66 66 66 66 65 63 61 61 59 58 59 60 61 64 67 71 74 76 77 78 80 81 84 87 90 93 95 95 95 96 97 98 99
88 87 85 84 83 83 82 82 82 83 83 82 81 80 80 80 79 79 80 82 82 80 79 78 77 77 75 74 73 73 73 73 73 73 72 72 73 74 75 75 75 73 71 70 70 70 71 71 71 70 68 67 67 67 67 67 66 66 65 64 63 62 62 62 63 64 65 67 71 75 78 81 84 86 87 89 91 93 96 98 100 100 100 99 98 98
87 86 85 84 84 84 83 82 82 83 83 82 80 80 80 80 81 82 82 83 82 82 81 79 78 78 77 75 74 73 73 72 72 72 73 73 74 75 75 74 74 73 72 70 69 68 68 68 67 67 67 68 69 69 69 69 68 67 67 66 66 66 66 66 65 64 65 67 70 74 78 81 84 86 88 89 92 96 99 101 103 103 100 98 96 95
85 85 85 84 84 83 83 82 82 83 83 82 80 79 79 80 82 83 82 82 82 81 80 79 79 78 78 77 75 75 74 74 73 73 73 74 74 74 74 74 75 75 74 71 68 66 66 66 67 69 71 72 73 72 71 71 70 69 69 70 70 70 68 67 66 67 69 70 72 75 77 80 81 83 84 85 84 81 78 80 87 92 93 93 93 93
83 83 84 83 83 83 83 82 82 83 82 81 80 80 81 81 82 81 80 80 80 80 79 78 77 77 78 78 77 76 75 74 74 73 73 73 73 73 74 76 76 75 71 68 66 65 65 67 70 72 74 74 74 74 73 73 73 73 73 72 71 70 69 69 71 72 73 74 75 77 78 80 81 81 82 81 75 64 57 61 75 87 93 94 96 96
82 82 83 83 82 82 83 81 81 81 80 79 79 81 81 81 81 81 79 78 77 77 78 78 78 77 77 77 76 75 74 75 75 74 74 75 75 75 74 74 73 70 68 67 67 67 68 70 72 74 74 75 75 75 76 76 76 75 73 72 71 71 72 72 72 73 74 73 73 74 75 73 70 69 70 70 70 69 69 74 84 92 96 96 97 97
79 78 78 80 81 81 81 80 80 80 79 78 78 79 79 80 80 80 78 77 76 75 74 74 73 71 71 71 71 70 70 71 72 75 79 80 77 73 71 69 68 70 71 71 71 71 72 74 74 74 74 75 75 76 76 75 74 73 73 74 74 73 71 68 65 65 65 64 63 64 64 61 60 60 60 62 65 72 78 82 87 91 94 96 97 97
78 76 75 76 77 78 78 79 79 79 78 77 77 77 77 77 77 76 75 74 74 74 74 72 69 67 65 62 62 63 65 66 67 69 74 76 74 72 71 71 72 74 74 74 74 75 75 75 75 74 74 74 75 75 74 74 74 75 75 74 73 71 68 64 58 56 57 60 64 65 63 62 65 68 70 74 79 83 85 87 89 92 96 98 99 99
74 75 74 74 74 75 77 77 77 77 76 76 75 75 74 74 74 74 72 68 67 69 72 72 70 69 67 63 62 65 67 68 69 69 69 70 71 72 73 74 75 76 76 77 77 77 76 76 76 76 76 75 75 75 75 74 74 73 72 70 68 67 67 65 63 64 69 75 80 80 75 72 72 72 72 74 79 83 86 89 92 94 95 96 96 98
71 72 73 72 73 74 74 74 74 74 74 73 73 73 72 68 65 66 69 70 68 69 70 70 69 69 69 67 66 66 68 71 75 75 73 73 73 74 75 77 78 79 79 79 79 78 78 78 78 78 77 77 76 74 73 72 72 72 71 70 68 67 66 63 62 64 70 76 80 81 80 79 78 77 76 76 79 83 88 93 94 93 93 94 97 100
70 71 72 72 73 74 74 74 74 74 73 73 73 73 72 67 59 57 64 70 71 72 72 71 70 70 70 70 69 70 73 77 78 78 77 77 77 78 79 80 81 81 81 80 79 79 79 79 80 79 78 77 75 74 74 73 72 71 70 67 65 64 62 60 59 61 65 70 74 75 76 78 79 81 83 84 87 90 93 94 93 93 95 97 99 100
68 69 70 71 73 74 74 74 74 73 73 73 74 74 74 71 63 58 60 64 68 70 72 71 68 68 71 72 72 74 77 78 78 78 78 78 79 79 79 80 81 81 81 81 81 81 81 81 80 79 78 77 76 76 74 69 61 59 58 56 54 56 59 63 67 70 73 75 77 78 79 80 82 84 87 89 91 92 93 93 93 95 96 96 97 97
Wind_Direction
271 272 273 275 281 295 311 321 331 337 341 348 350 350 357 12 37 63 75 77 77 81 83 79 76 74 74 76 74 70 67 67 65 68 68 62 59 56 47 42 38 33 29 28 27 24 23 22 19 16 14 12 13 14 13 14 12 9 8 5 359 358 3 5 4 2 359 358 357 357 358 358 357 357 357 358 357 356 356 358 359 360 1 3 4 5
266 268 271 271 271 276 286 293 302 316 325 333 335 333 334 341 354 15 52 72 73 73 85 88 69 56 65 72 70 64 61 62 60 59 59 54 51 47 39 35 33 28 26 22 17 10 5 2 1 3 4 359 352 345 344 347 349 350 352 351 348 351 1 4 2 360 357 354 353 354 354 355 355 355 355 355 354 351 349 351 355 358 360 2 4 5
263 265 268 269 268 268 272 278 281 287 303 317 319 318 318 320 326 332 344 20 53 57 74 94 77 45 49 64 63 60 54 52 53 57 57 51 45 41 38 36 30 24 23 21 21 19 7 357 352 352 355 355 351 350 347 344 342 342 339 338 339 346 355 357 357 358 358 355 353 353 354 355 354 353 353 353 352 351 348 347 352 357 0 2 3 3
261 263 265 267 266 265 265 269 273 272 277 294 302 303 305 308 308 310 313 318 331 8 46 77 79 54 46 34 30 43 55 53 45 44 46 43 36 32 31 33 29 22 19 20 22 21 13 7 2 355 355 356 356 356 355 351 350 349 346 339 330 327 337 347 352 354 355 353 352 352 353 354 354 353 352 350 350 350 348 346 346 349 353 359 2 2
260 260 262 263 264 264 264 264 266 267 265 272 283 288 293 298 298 295 294 296 298 295 297 315 330 355 3 14 10 5 25 47 46 40 34 28 25 21 18 21 22 14 9 11 11 10 11 10 2 351 348 353 352 350 349 351 353 354 354 351 341 332 335 341 347 349 350 350 350 350 349 350 351 351 350 348 347 347 346 345 342 340 338 342 351 358
256 257 260 262 263 263 263 262 263 264 263 262 268 274 281 288 289 287 284 282 285 286 282 277 280 289 304 319 333 332 336 352 10 21 22 4 358 360 359 357 359 358 355 356 355 352 353 355 354 350 346 343 343 343 344 347 351 352 352 353 350 345 342 342 343 344 346 348 349 349 349 349 349 347 347 346 345 344 343 343 341 337 333 328 333 345
255 256 258 260 261 260 261 262 261 261 260 258 257 257 260 269 277 281 281 277 277 279 277 272 269 271 278 288 297 305 313 320 325 330 338 333 329 333 337 334 335 339 340 341 342 340 336 337 341 345 346 343 340 340 340 342 345 347 347 346 345 343 341 340 340 341 343 345 346 346 347 346 345 344 344 344 344 343 342 341 340 338 333 327 323 332
253 252 253 256 258 259 260 260 260 259 258 256 252 249 246 246 256 269 273 273 272 272 273 272 269 270 269 271 276 282 294 304 308 310 311 312 312 314 316 319 322 324 326 329 330 331 330 328 329 332 337 338 336 335 334 335 338 340 340 339 338 336 335 335 335 336 338 339 340 341 342 342 341 340 340 341 342 342 341 340 341 340 337 333 328 331
249 249 250 253 256 258 259 259 259 260 258 255 252 250 247 241 241 254 262 265 266 266 268 269 267 268 267 266 269 271 276 284 292 298 301 303 303 302 304 308 312 313 314 318 321 324 326 325 324 324 326 327 327 327 327 329 333 335 335 334 333 332 331 330 329 329 329 331 334 336 337 338 339 338 338 338 339 341 340 340 341 341 340 338 336 337
249 249 249 251 255 257 258 259 260 260 259 257 255 253 252 247 240 244 253 258 261 262 264 266 266 267 266 265 268 271 270 270 276 285 291 295 297 297 299 299 301 304 307 310 314 317 319 321 322 323 323 323 323 323 323 323 325 329 330 329 330 330 330 329 327 325 323 324 327 329 330 331 333 335 334 335 336 337 338 337 338 340 339 336 335 338
250 249 250 252 254 256 257 258 260 261 259 258 257 256 256 254 247 243 246 250 256 260 261 265 268 269 268 266 265 266 268 269 271 276 283 289 292 294 297 297 296 299 304 307 310 312 316 317 319 322 322 322 321 323 324 323 322 324 325 325 327 328 329 328 326 324 322 321 322 324 325 326 327 329 330 331 332 333 333 334 336 338 337 333 330 334
250 251 252 252 253 255 256 257 258 259 259 259 259 258 257 256 253 249 248 247 251 255 255 256 260 267 271 269 266 264 264 267 270 272 276 281 287 293 296 296 295 299 303 304 307 311 314 316 316 318 320 319 319 320 322 322 322 323 323 323 324 325 327 327 326 324 322 321 321 322 323 323 324 325 326 326 327 328 329 331 334 336 336 332 327 328
248 248 248 248 249 252 253 253 255 258 259 258 257 258 257 256 254 253 253 250 249 251 250 247 247 256 265 268 270 269 266 265 269 273 275 277 283 291 296 297 298 301 303 301 303 307 311 313 313 314 315 315 315 316 317 319 320 321 321 321 321 322 323 324 323 322 321 321 322 323 323 322 322 323 323 323 323 324 324 327 333 336 336 332 326 323
244 244 244 245 246 249 251 251 252 255 256 255 254 255 256 256 257 257 256 253 251 251 250 248 245 250 257 261 267 270 270 270 271 273 276 278 280 283 288 292 296 301 302 300 301 304 307 309 310 310 311 311 312 313 314 316 318 319 319 319 319 320 320 320 320 320 320 321 321 322 322 322 321 322 323 321 320 321 320 323 330 334 334 331 325 321
244 244 244 244 245 246 248 248 248 250 252 253 253 253 255 258 259 258 255 254 253 252 254 254 251 252 255 257 261 265 271 275 276 277 279 280 281 279 279 284 289 296 299 300 301 303 305 306 306 306 307 309 310 310 312 314 316 317 317 317 317 318 318 319 319 319 320 320 321 322 321 321 322 322 322 320 319 319 316 318 326 332 332 329 323 321
246 246 245 245 245 246 247 247 246 248 251 253 253 254 256 257 255 254 254 255 256 255 257 258 256 255 256 256 258 263 268 272 276 279 280 282 282 282 282 283 285 290 294 297 299 301 302 303 304 304 305 306 307 308 310 313 314 315 316 316 316 316 317 318 318 318 319 319 320 321 321 321 322 321 322 321 320 318 315 316 323 328 330 327 323 321
244 244 244 244 245 246 247 248 248 248 250 252 253 254 255 254 252 253 254 256 258 259 258 258 257 256 257 257 259 262 264 268 272 275 278 280 281 283 285 285 284 286 288 291 295 297 298 300 303 303 304 305 305 307 309 311 312 314 314 314 314 315 316 317 317 318 318 319 320 321 321 322 322 321 323 323 322 319 316 318 322 326 328 325 321 321
242 241 241 241 242 243 244 246 247 247 248 251 252 251 252 253 254 255 256 256 258 259 258 259 259 258 259 259 261 263 264 266 268 272 275 277 278 280 283 284 286 286 286 289 292 293 294 296 298 299 301 302 303 305 307 309 310 312 312 313 313 313 314 315 316 316 317 318 320 321 322 322 321 321 323 324 321 318 317 318 321 326 327 323 320 322
242 241 242 242 242 243 244 246 246 247 249 251 252 252 253 256 257 257 256 255 255 256 257 258 260 261 260 260 261 265 266 266 268 270 272 272 273 275 277 280 284 286 288 290 291 291 293 294 295 296 298 300 302 303 306 307 308 309 310 311 311 312 313 314 315 316 316 318 320 321 321 321 321 321 323 322 318 315 316 318 320 325 327 324 321 324
242 243 243 243 243 243 245 246 247 249 251 253 254 254 255 256 257 257 255 254 254 254 255 256 258 259 260 260 259 261 263 265 267 269 270 270 270 271 273 275 278 282 285 288 289 291 292 293 294 295 296 298 300 302 304 305 307 308 309 309 310 311 312 313 313 315 315 317 319 320 320 320 319 318 320 320 316 313 314 315 318 323 326 324 322 324
242 243 244 244 243 243 245 248 250 250 251 252 253 253 253 253 255 256 255 254 255 255 254 254 255 257 260 260 259 258 259 262 264 266 268 269 270 270 271 272 273 275 278 280 282 285 288 290 292 293 295 296 298 300 303 304 305 306 307 308 309 309 310 312 313 314 315 317 319 318 317 316 316 316 317 317 314 311 311 313 315 319 322 321 320 321
242 243 244 244 244 245 246 248 249 249 249 250 251 251 251 252 254 256 258 257 256 256 255 254 255 257 259 260 260 258 258 260 262 263 265 267 270 271 272 272 271 271 273 276 278 280 283 286 288 290 292 294 296 298 300 302 304 305 306 307 308 309 310 311 312 314 316 317 317 315 314 313 313 315 315 314 311 309 310 311 313 315 318 318 316 316
240 241 242 243 243 245 245 245 247 249 248 248 250 251 252 253 255 257 258 257 256 256 257 257 257 257 257 259 260 260 259 259 259 261 262 264 268 271 273 274 273 273 275 277 279 281 282 284 286 288 290 292 295 297 299 301 303 304 306 306 307 308 309 311 312 314 314 313 313 313 313 313 314 316 315 312 309 308 307 308 309 311 313 314 313 312
239 240 242 243 242 243 243 243 245 248 248 249 250 252 253 254 256 257 257 257 257 258 259 260 259 259 258 258 260 261 261 260 259 260 262 264 266 270 273 275 276 277 277 277 278 280 280 282 285 287 290 292 294 297 300 301 303 304 305 306 307 308 310 311 312 314 313 312 312 313 313 314 315 314 311 309 307 304 303 303 305 307 307 308 309 309
240 241 242 244 243 242 243 244 247 250 253 253 253 253 254 255 255 256 257 258 259 260 261 261 260 259 258 258 259 260 261 261 261 262 264 264 266 268 271 274 275 275 276 277 278 279 280 282 284 287 290 292 294 297 298 300 302 303 304 306 307 308 310 311 312 314 316 313 310 312 315 314 312 310 308 306 303 301 300 300 302 304 303 303 306 307
239 240 241 243 244 244 245 247 249 252 254 254 252 252 253 254 254 255 256 258 259 260 261 260 259 258 258 259 261 262 262 262 264 265 265 266 267 268 269 271 273 275 275 276 277 279 281 282 284 287 289 290 292 294 296 298 300 302 304 305 307 308 309 310 311 315 319 315 307 308 312 311 308 306 304 302 301 301 300 301 304 304 300 300 304 305
240 240 241 242 244 244 244 244 245 247 249 250 250 249 249 250 252 253 254 256 257 258 259 259 259 259 260 262 263 264 264 265 265 266 266 267 269 270 270 271 272 275 276 276 277 279 281 282 284 286 287 289 290 292 294 296 297 300 302 304 305 306 307 310 312 314 318 315 306 305 308 308 305 303 300 300 304 305 303 303 305 302 297 299 301 302
240 240 241 243 244 244 244 243 243 245 246 248 250 251 250 251 252 254 255 256 257 258 259 260 260 262 263 264 265 266 266 266 266 267 269 270 271 271 272 273 274 275 276 278 280 283 284 284 285 286 287 289 290 292 293 295 296 299 301 302 303 305 307 311 312 312 314 314 309 305 305 303 300 297 296 300 306 307 304 303 302 298 294 296 299 300
240 241 242 243 244 245 244 244 245 247 248 249 250 253 254 255 256 257 258 259 259 260 260 260 261 262 264 265 265 265 265 266 267 269 271 272 272 272 273 274 274 275 277 280 284 286 285 285 286 287 288 288 290 291 292 294 296 297 298 299 301 305 309 311 311 310 311 314 314 307 297 294 295 294 293 298 303 303 301 298 297 295 291 293 297 300
240 241 242 244 245 245 245 245 245 246 248 248 249 251 253 255 256 258 259 260 260 259 260 261 262 263 265 266 265 265 265 266 268 271 272 272 272 273 273 273 274 276 279 282 284 285 285 286 287 287 288 288 290 290 291 292 293 293 294 296 300 306 309 309 307 304 303 307 306 296 287 289 295 294 291 295 299 299 294 291 293 294 290 290 295 299
239 240 242 243 245 245 246 246 245 246 247 249 250 251 252 253 254 256 257 259 260 260 262 263 265 267 267 266 266 266 267 268 270 271 271 271 272 273 274 275 276 277 278 281 283 284 285 286 287 286 287 288 289 289 290 290 290 290 292 296 301 307 308 306 304 299 296 296 289 280 282 289 293 293 291 293 295 293 290 289 291 293 292 292 294 296
239 239 240 242 244 245 246 247 246 247 248 250 251 251 252 253 254 255 256 258 259 260 262 263 265 266 266 265 266 267 268 270 271 271 271 272 273 273 274 276 277 277 278 279 280 282 284 285 286 287 287 288 288 289 289 289 289 290 293 297 303 309 310 306 301 293 291 293 288 283 285 289 290 292 291 290 289 289 289 289 290 293 294 294 295 296
239 240 240 241 242 244 245 247 247 247 247 248 250 251 252 254 255 256 256 256 258 259 260 262 264 264 264 264 265 267 269 270 270 271 271 271 272 273 273 274 276 278 279 280 280 282 282 282 283 284 285 285 286 288 288 288 290 291 293 298 305 309 308 302 298 293 291 293 289 285 289 292 291 289 284 282 287 290 290 290 293 295 296 296 296 297
240 241 241 241 242 244 246 247 248 248 248 249 251 253 254 255 257 258 258 259 259 261 261 262 262 262 262 264 265 267 268 269 270 270 270 270 271 273 273 275 276 277 278 280 281 280 279 278 278 280 281 283 284 286 286 287 288 290 294 300 304 306 304 300 299 296 293 292 289 286 291 295 287 276 275 281 288 290 291 292 295 296 296 296 295 295
238 241 242 243 244 245 247 249 250 251 251 251 253 255 255 256 257 259 260 261 261 262 261 261 260 260 261 263 264 266 266 268 269 270 270 271 272 273 274 275 276 277 278 280 280 279 277 276 277 278 280 282 283 284 284 285 287 290 293 296 297 298 294 286 286 289 288 289 290 289 291 289 276 270 277 284 287 289 291 292 293 293 293 292 292 293
237 240 242 243 244 245 247 248 250 252 253 253 254 256 257 257 258 259 260 261 261 261 261 260 260 260 261 262 264 266 267 269 270 271 272 273 273 273 273 274 275 277 278 279 278 277 277 277 278 279 280 281 282 282 283 284 286 288 289 290 289 289 283 273 272 278 280 279 277 275 274 270 265 269 278 283 285 288 289 290 290 290 289 290 291 294
236 239 241 243 245 246 247 249 250 253 254 255 254 255 256 257 257 258 259 259 259 260 261 261 262 262 263 265 266 268 270 271 272 273 275 275 274 273 273 273 274 275 276 276 277 277 278 279 280 281 281 281 282 282 283 284 285 286 286 285 284 283 280 274 272 274 277 276 272 269 266 263 263 269 274 277 280 283 286 287 287 287 288 291 293 295
236 237 239 241 244 245 246 248 250 251 252 253 252 252 253 254 255 257 259 260 260 261 262 264 265 266 267 268 268 270 271 272 272 273 274 274 273 272 271 271 271 271 272 273 275 277 279 279 280 281 282 282 283 283 284 284 284 284 283 282 281 278 274 273 272 273 275 276 274 273 270 267 267 270 274 276 278 281 284 285 286 287 290 293 295 296
236 237 238 240 242 244 245 246 247 248 249 249 250 252 252 254 256 258 260 262 262 263 264 265 267 267 268 269 270 271 271 271 272 272 272 272 271 270 270 270 270 271 272 273 274 276 278 279 279 280 281 282 282 282 283 284 284 283 283 281 280 277 273 271 271 271 272 272 273 273 273 271 270 272 274 276 278 280 283 285 287 289 291 293 295 296
236 237 238 239 241 242 244 245 246 247 248 250 252 254 255 257 258 260 260 262 263 264 265 267 268 269 269 270 270 271 271 272 272 272 271 271 271 271 271 271 272 273 274 275 275 276 278 279 280 280 280 280 281 281 283 284 284 283 283 281 280 279 276 274 274 272 271 271 272 273 274 274 274 275 276 277 279 282 285 287 289 291 292 293 295 296
236 237 237 238 239 240 242 244 246 248 249 251 253 255 256 258 259 259 260 261 263 264 266 267 269 269 270 270 270 270 270 271 272 272 271 271 271 271 271 273 274 275 275 276 277 278 279 280 281 282 281 280 281 282 284 284 283 283 282 282 281 280 279 279 278 276 274 272 271 272 273 274 275 277 278 280 282 284 287 288 289 290 290 291 292 294
237 238 238 238 239 241 242 243 246 248 250 251 252 254 256 258 258 259 260 262 264 265 267 267 268 269 269 269 269 269 270 270 270 270 270 271 271 271 273 274 275 276 276 276 277 278 279 280 280 280 280 281 282 284 284 283 283 283 283 282 282 283 283 283 281 278 276 274 272 273 274 274 275 276 277 279 281 285 287 288 288 286 286 288 291 292
237 238 239 240 240 241 242 243 245 247 249 250 251 252 254 255 257 259 261 262 263 265 266 267 267 267 268 268 268 269 269 269 269 268 268 268 270 271 273 274 274 275 277 278 278 278 278 278 278 279 280 282 282 283 282 282 282 282 282 283 283 284 285 284 282 280 279 278 277 276 275 275 275 275 276 278 282 286 289 289 286 285 286 289 291 291
235 237 239 240 241 242 243 243 245 246 248 250 251 251 252 254 255 257 259 260 262 263 264 264 265 266 267 268 268 269 270 269 269 268 268 268 269 271 272 274 275 276 278 278 278 277 276 276 277 279 281 282 283 283 283 283 282 282 283 283 284 285 285 285 286 285 283 281 279 277 276 276 276 276 276 276 276 275 276 280 283 285 288 290 291 290
235 237 239 240 242 243 244 244 245 246 247 248 249 250 251 252 254 255 256 258 259 261 262 263 264 266 267 268 269 270 270 271 271 271 270 271 272 273 274 275 276 277 278 278 278 278 278 278 278 280 281 282 283 283 284 284 284 285 285 285 286 287 288 289 289 289 287 284 281 280 279 278 276 276 277 276 270 264 265 273 279 283 286 287 287 288
236 237 239 240 241 243 244 244 245 245 246 246 247 249 250 251 253 254 255 257 258 259 261 263 265 267 268 269 271 271 271 271 271 272 273 274 274 274 274 274 276 278 279 279 279 279 280 280 280 281 282 282 283 284 284 284 285 286 287 288 289 290 290 292 293 293 290 287 284 284 281 273 269 271 274 274 272 270 271 275 278 280 282 284 285 285
235 236 237 239 240 241 242 242 243 244 244 244 245 246 248 249 252 254 255 257 258 258 259 261 262 263 264 266 266 266 266 267 268 268 271 274 275 275 275 275 277 279 280 279 280 280 281 281 281 281 281 282 282 283 283 284 285 286 287 288 289 290 289 289 288 284 281 281 282 283 280 272 269 271 271 272 273 274 275 277 280 281 283 283 283 283
234 235 237 238 240 240 241 241 242 243 243 243 244 245 247 249 252 254 255 256 257 257 258 259 259 258 258 258 259 261 262 264 264 264 265 268 271 273 275 276 278 278 279 279 280 280 280 280 280 280 281 281 282 282 283 284 285 286 287 288 289 290 290 288 282 274 271 272 275 278 277 275 274 274 273 273 273 273 275 279 282 283 283 283 283 283
233 234 235 237 238 240 241 241 241 242 243 243 244 244 246 248 251 253 252 251 252 255 257 258 257 256 255 255 256 257 258 259 261 263 264 265 267 269 271 273 275 276 276 277 278 278 279 279 280 281 281 282 282 283 284 285 286 287 288 288 288 289 289 286 281 275 271 271 273 274 275 273 272 273 274 275 275 275 278 282 283 284 284 284 285 287
233 234 235 235 236 238 239 240 241 241 242 243 243 244 244 244 245 250 251 249 249 251 253 255 256 257 256 255 252 250 252 255 259 263 264 265 267 268 270 272 274 275 275 276 276 277 278 279 280 281 281 282 283 283 284 286 289 290 289 289 290 289 284 278 274 273 273 274 275 276 275 274 274 275 276 277 279 280 282 283 284 285 287 288 289 292
232 233 234 235 236 238 239 239 240 241 241 242 243 244 244 242 240 242 246 247 247 247 249 250 252 252 254 254 253 251 252 255 258 261 263 265 266 268 269 270 272 273 274 275 276 277 278 278 279 279 280 281 282 282 284 286 289 290 291 292 289 282 275 271 269 269 271 274 276 277 278 279 280 281 281 282 283 284 285 286 288 289 290 292 293 295
Height
11007 11008 11008 11009 11008 11008 11008 11008 11009 11008 11008 11007 11007 11007 11006 11006 11005 11004 11003 11002 11001 11000 10999 10999 10998 10998 10998 10998 10998 10997 10997 10997 10997 10997 10997 10997 10996 10996 10996 10995 10995 10995 10994 10994 10994 10994 10995 10995 10994 10994 10993 10993 10992 10991 10990 10990 10989 10989 10988 10987 10986 10984 10983 10982 10981 10979 10978 10976 10974 10973 10971 10970 10968 10966 10964 10962 10960 10958 10956 10954 10951 10949 10947 10944 10942 10939
11004 11005 11005 11006 11007 11007 11007 11007 11007 11007 11007 11007 11007 11007 11006 11006 11006 11005 11004 11003 11002 11001 11000 10999 10998 10998 10998 10998 10998 10998 10998 10998 10998 10998 10997 10997 10996 10996 10995 10995 10995 10995 10994 10994 10994 10994 10994 10994 10994 10994 10993 10992 10992 10991 10990 10990 10989 10988 10987 10987 10986 10984 10983 10981 10980 10978 10977 10976 10974 10972 10970 10968 10967 10965 10963 10961 10959 10957 10954 10952 10950 10947 10944 10942 10939 10937
11001 11002 11003 11003 11004 11005 11006 11005 11005 11006 11006 11005 11005 11006 11005 11005 11005 11005 11005 11004 11003 11002 11001 11000 11000 10999 10998 10998 10998 10998 10998 10998 10998 10998 10998 10997 10996 10996 10996 10995 10995 10995 10994 10993 10993 10993 10993 10993 10993 10993 10992 10992 10991 10990 10989 10989 10988 10987 10986 10986 10985 10983 10982 10980 10978 10977 10975 10974 10973 10971 10969 10967 10965 10963 10961 10958 10956 10954 10952 10950 10948 10945 10942 10939 10936 10934
10998 11000 11000 11000 11002 11003 11004 11004 11003 11004 11004 11004 11004 11004 11004 11004 11004 11004 11004 11004 11004 11003 11002 11001 11000 11000 10999 10998 10998 10998 10998 10998 10998 10997 10997 10997 10997 10996 10996 10995 10995 10995 10994 10994 10993 10993 10993 10993 10993 10992 10992 10991 10990 10989 10989 10988 10987 10986 10985 10984 10983 10982 10980 10979 10977 10975 10974 10972 10971 10970 10968 10966 10964 10961 10958 10956 10954 10952 10950 10947 10945 10942 10939 10935 10933 10930
10995 10997 10997 10997 10998 11000 11001 11001 11001 11002 11002 11002 11003 11003 11003 11003 11003 11003 11003 11003 11003 11003 11002 11001 11001 11000 11000 10999 10998 10997 10998 10998 10998 10997 10997 10997 10996 10996 10995 10995 10995 10995 10994 10994 10994 10993 10993 10992 10992 10992 10991 10990 10989 10989 10988 10987 10986 10985 10983 10982 10981 10980 10979 10977 10976 10974 10973 10971 10969 10968 10966 10964 10961 10959 10956 10954 10952 10949 10947 10945 10942 10940 10936 10933 10930 10927
10990 10994 10995 10994 10995 10997 10998 10999 10999 10999 10999 11000 11001 11001 11002 11002 11001 11001 11002 11002 11002 11002 11002 11002 11001 11001 11000 10999 10998 10997 10996 10997 10997 10997 10997 10997 10996 10996 10995 10995 10994 10994 10994 10994 10993 10993 10992 10992 10991 10991 10990 10989 10989 10988 10987 10986 10984 10983 10982 10981 10980 10978 10977 10976 10974 10973 10971 10969 10967 10965 10964 10961 10959 10957 10955 10953 10950 10947 10944 10942 10939 10936 10933 10930 10927 10924
10987 10990 10992 10990 10991 10993 10995 10995 10996 10997 10997 10998 10999 10999 11000 11001 11000 11000 11000 11000 11000 11000 11000 11001 11001 11001 11001 11000 10999 10998 10996 10995 10996 10996 10996 10996 10995 10995 10995 10995 10994 10993 10993 10993 10993 10992 10991 10991 10990 10990 10989 10988 10987 10986 10985 10984 10983 10981 10980 10979 10978 10976 10975 10974 10972 10970 10968 10967 10965 10963 10961 10959 10958 10956 10954 10951 10949 10945 10942 10939 10936 10933 10930 10926 10924 10922
10982 10986 10988 10986 10987 10989 10991 10991 10992 10993 10994 10995 10996 10997 10998 10999 10999 10999 10998 10999 10999 10998 10998 10999 11000 11000 11000 11000 10999 10998 10996 10994 10994 10994 10995 10995 10994 10994 10994 10994 10993 10992 10992 10991 10991 10991 10990 10989 10988 10988 10988 10987 10986 10985 10984 10983 10981 10979 10978 10977 10975 10974 10973 10971 10969 10968 10966 10964 10963 10961 10959 10957 10955 10953 10950 10948 10946 10944 10941 10938 10934 10931 10927 10923 10921 10920
10975 10981 10983 10982 10983 10985 10986 10987 10988 10990 10990 10991 10993 10994 10995 10996 10997 10997 10997 10997 10997 10997 10997 10997 10998 10998 10999 10999 10999 10998 10997 10995 10994 10993 10993 10993 10993 10993 10993 10992 10992 10991 10990 10990 10990 10989 10988 10988 10987 10986 10986 10986 10985 10984 10983 10981 10980 10978 10976 10975 10974 10972 10970 10968 10967 10965 10964 10962 10960 10958 10956 10954 10951 10948 10946 10944 10942 10940 10937 10935 10932 10929 10926 10923 10920 10918
10972 10977 10978 10979 10980 10981 10981 10982 10984 10985 10985 10987 10989 10990 10990 10991 10993 10994 10994 10994 10995 10995 10995 10995 10996 10996 10997 10997 10997 10997 10997 10996 10994 10993 10992 10991 10991 10991 10990 10990 10991 10990 10989 10989 10988 10988 10987 10986 10986 10985 10985 10984 10983 10982 10981 10980 10978 10977 10975 10973 10971 10970 10968 10966 10964 10963 10961 10959 10957 10955 10953 10950 10947 10945 10942 10940 10937 10935 10933 10931 10928 10926 10923 10920 10917 10915
10969 10971 10973 10976 10977 10976 10976 10978 10980 10979 10980 10982 10984 10985 10986 10987 10989 10990 10991 10991 10992 10992 10993 10993 10993 10994 10994 10995 10996 10996 10995 10995 10994 10993 10991 10990 10990 10989 10988 10988 10989 10990 10989 10987 10987 10986 10986 10984 10984 10984 10983 10982 10981 10980 10979 10978 10976 10975 10973 10971 10969 10968 10966 10964 10961 10960 10958 10956 10954 10952 10950 10947 10945 10942 10940 10937 10934 10932 10929 10926 10924 10921 10919 10916 10913 10910
10963 10967 10971 10973 10972 10971 10971 10974 10975 10974 10974 10978 10979 10980 10981 10982 10984 10986 10987 10988 10988 10989 10990 10991 10992 10992 10991 10991 10993 10994 10994 10993 10993 10992 10991 10990 10988 10987 10986 10985 10985 10987 10988 10986 10985 10985 10984 10982 10981 10981 10981 10981 10979 10978 10977 10975 10974 10973 10971 10969 10967 10965 10964 10961 10959 10957 10955 10953 10951 10949 10947 10945 10942 10939 10937 10934 10931 10929 10926 10923 10920 10917 10914 10911 10908 10905
10958 10963 10965 10966 10966 10965 10966 10969 10971 10969 10970 10973 10974 10975 10976 10977 10979 10981 10982 10983 10984 10985 10986 10988 10990 10991 10989 10989 10990 10991 10991 10991 10991 10991 10990 10988 10987 10986 10984 10982 10981 10982 10984 10984 10984 10983 10982 10981 10979 10979 10979 10978 10977 10975 10974 10973 10972 10971 10969 10966 10964 10962 10961 10959 10956 10954 10952 10950 10948 10946 10944 10942 10939 10935 10933 10930 10927 10924 10921 10918 10915 10912 10909 10905 10902 10899
10952 10956 10958 10960 10961 10960 10961 10965 10967 10964 10964 10967 10970 10970 10970 10972 10975 10977 10977 10978 10979 10980 10981 10984 10986 10988 10987 10987 10987 10987 10987 10988 10989 10989 10987 10986 10986 10985 10983 10981 10979 10978 10979 10980 10981 10981 10980 10980 10978 10976 10975 10975 10974 10973 10971 10970 10969 10968 10966 10964 10962 10959 10957 10955 10953 10951 10949 10946 10943 10941 10939 10937 10935 10931 10928 10925 10922 10920 10916 10913 10909 10907 10904 10900 10897 10894
10946 10950 10953 10955 10956 10955 10955 10959 10961 10957 10957 10961 10965 10966 10966 10968 10971 10971 10971 10973 10974 10976 10977 10979 10982 10983 10983 10984 10984 10984 10984 10984 10985 10985 10985 10984 10983 10982 10981 10980 10979 10977 10975 10975 10976 10977 10977 10977 10977 10975 10972 10972 10971 10970 10968 10967 10966 10965 10963 10961 10959 10956 10954 10951 10949 10946 10944 10941 10939 10937 10934 10932 10930 10927 10923 10920 10917 10915 10911 10908 10905 10902 10900 10896 10893 10889
10941 10946 10948 10948 10948 10949 10949 10951 10953 10951 10952 10956 10960 10962 10963 10964 10965 10964 10966 10967 10969 10972 10974 10975 10977 10978 10978 10980 10981 10981 10981 10981 10981 10981 10981 10981 10979 10979 10979 10978 10977 10976 10973 10971 10972 10973 10973 10973 10973 10972 10970 10968 10967 10967 10965 10964 10963 10961 10959 10957 10955 10953 10951 10948 10945 10942 10939 10937 10934 10932 10929 10927 10924 10922 10918 10915 10911 10909 10906 10903 10900 10897 10895 10892 10888 10885
10934 10939 10939 10940 10942 10944 10944 10943 10945 10946 10948 10951 10955 10958 10957 10956 10957 10959 10961 10963 10964 10967 10969 10969 10971 10973 10974 10976 10977 10977 10978 10978 10978 10978 10978 10977 10976 10976 10975 10974 10974 10974 10972 10969 10968 10969 10969 10969 10969 10968 10967 10965 10963 10962 10962 10961 10959 10957 10955 10953 10950 10948 10946 10944 10941 10937 10934 10932 10930 10927 10925 10922 10918 10915 10913 10909 10906 10903 10900 10898 10894 10892 10890 10887 10884 10882
10926 10929 10929 10931 10935 10937 10936 10935 10937 10941 10943 10946 10951 10952 10949 10948 10952 10956 10958 10960 10960 10961 10963 10964 10965 10967 10969 10972 10972 10972 10973 10974 10974 10974 10974 10974 10973 10973 10972 10970 10970 10970 10969 10967 10966 10965 10966 10966 10965 10964 10963 10962 10960 10958 10957 10956 10955 10954 10951 10949 10946 10944 10941 10939 10937 10933 10930 10927 10925 10922 10919 10916 10913 10909 10906 10903 10900 10897 10894 10891 10889 10886 10885 10882 10880 10877
10917 10919 10920 10923 10928 10930 10929 10928 10931 10936 10939 10942 10945 10945 10944 10945 10948 10951 10953 10955 10955 10956 10958 10959 10960 10962 10964 10967 10968 10968 10968 10969 10970 10970 10970 10969 10969 10970 10970 10968 10967 10965 10965 10964 10963 10961 10961 10961 10962 10961 10960 10958 10956 10954 10952 10951 10951 10949 10947 10945 10941 10939 10936 10934 10932 10929 10926 10922 10920 10917 10914 10911 10907 10903 10900 10897 10894 10891 10888 10885 10882 10880 10879 10877 10874 10872
10908 10910 10912 10916 10921 10922 10920 10922 10928 10933 10934 10936 10938 10940 10941 10942 10942 10944 10947 10948 10949 10951 10953 10954 10955 10957 10959 10962 10964 10964 10964 10965 10966 10966 10965 10964 10965 10966 10966 10965 10965 10963 10962 10962 10959 10957 10957 10957 10957 10956 10956 10955 10953 10950 10948 10946 10946 10944 10943 10941 10938 10934 10931 10929 10927 10925 10922 10919 10915 10912 10909 10905 10901 10897 10894 10891 10889 10886 10882 10879 10876 10874 10872 10871 10868 10866
10899 10902 10904 10908 10913 10914 10916 10921 10924 10926 10928 10929 10932 10935 10937 10936 10934 10936 10939 10942 10944 10945 10947 10949 10950 10952 10954 10956 10958 10959 10960 10962 10962 10961 10960 10959 10960 10961 10961 10962 10962 10961 10960 10960 10958 10956 10954 10953 10952 10952 10952 10951 10949 10947 10945 10942 10941 10939 10938 10936 10934 10931 10928 10925 10922 10919 10917 10914 10910 10907 10903 10900 10896 10893 10889 10886 10883 10880 10877 10874 10871 10868 10866 10865 10863 10860
10894 10897 10897 10900 10904 10908 10915 10918 10914 10916 10921 10923 10926 10929 10929 10929 10928 10929 10933 10936 10937 10938 10940 10942 10944 10948 10949 10949 10950 10953 10956 10957 10957 10956 10955 10955 10956 10955 10955 10956 10957 10956 10957 10956 10954 10953 10952 10950 10949 10948 10948 10947 10946 10944 10942 10939 10936 10934 10932 10931 10929 10926 10924 10921 10918 10915 10911 10908 10905 10902 10898 10895 10891 10889 10885 10881 10878 10874 10871 10868 10865 10862 10860 10859 10857 10854
10886 10886 10886 10891 10898 10903 10909 10910 10904 10905 10913 10917 10919 10922 10923 10923 10924 10925 10927 10928 10930 10932 10934 10935 10939 10942 10944 10943 10943 10946 10950 10951 10951 10950 10950 10952 10952 10951 10949 10949 10950 10950 10951 10951 10949 10948 10948 10946 10945 10944 10944 10943 10942 10940 10938 10935 10932 10929 10927 10925 10923 10921 10919 10917 10914 10911 10907 10904 10901 10897 10893 10890 10887 10884 10881 10877 10873 10870 10866 10862 10859 10857 10855 10852 10850 10848
10873 10875 10879 10884 10892 10896 10898 10900 10897 10897 10905 10912 10914 10916 10917 10918 10919 10919 10918 10919 10922 10926 10928 10930 10933 10936 10938 10938 10937 10939 10942 10943 10943 10945 10947 10948 10948 10946 10944 10943 10943 10943 10944 10946 10945 10943 10943 10942 10940 10939 10939 10938 10937 10936 10933 10930 10927 10924 10921 10919 10917 10915 10914 10912 10908 10907 10904 10899 10895 10893 10889 10886 10883 10879 10875 10872 10868 10864 10861 10858 10855 10852 10850 10847 10844 10842
10864 10870 10875 10876 10881 10887 10890 10894 10895 10894 10899 10907 10910 10910 10911 10912 10913 10912 10910 10911 10916 10920 10920 10923 10927 10928 10930 10932 10932 10933 10935 10935 10935 10939 10942 10943 10943 10942 10940 10938 10937 10937 10939 10940 10939 10937 10937 10937 10936 10934 10933 10933 10932 10931 10928 10925 10922 10919 10916 10913 10910 10909 10908 10906 10902 10902 10902 10896 10889 10887 10885 10881 10877 10874 10869 10865 10861 10858 10855 10853 10850 10847 10845 10842 10839 10837
10856 10863 10867 10866 10872 10881 10887 10892 10895 10893 10893 10897 10901 10903 10904 10904 10905 10904 10902 10905 10911 10912 10912 10914 10918 10920 10923 10925 10925 10926 10928 10928 10929 10933 10935 10936 10937 10938 10936 10934 10931 10931 10933 10934 10933 10932 10931 10930 10930 10930 10929 10928 10928 10926 10924 10921 10918 10915 10912 10909 10905 10903 10902 10900 10898 10898 10899 10894 10884 10879 10878 10875 10871 10867 10863 10858 10853 10850 10848 10847 10844 10842 10840 10837 10834 10832
10849 10855 10857 10858 10864 10874 10881 10886 10887 10885 10884 10885 10889 10893 10896 10895 10895 10895 10895 10900 10904 10904 10903 10906 10909 10911 10916 10919 10919 10919 10921 10922 10924 10926 10927 10930 10932 10931 10929 10928 10926 10926 10926 10927 10927 10926 10926 10925 10924 10924 10923 10923 10922 10921 10920 10918 10915 10912 10910 10905 10901 10898 10896 10895 10893 10892 10894 10891 10881 10873 10869 10867 10864 10860 10855 10851 10847 10843 10840 10839 10839 10836 10834 10831 10829 10826
10840 10846 10849 10851 10857 10865 10871 10875 10876 10877 10878 10879 10879 10881 10886 10888 10887 10887 10889 10893 10897 10896 10896 10899 10901 10904 10910 10913 10913 10913 10913 10914 10916 10919 10921 10924 10926 10924 10922 10920 10919 10919 10919 10919 10921 10921 10920 10919 10918 10917 10917 10916 10915 10915 10914 10912 10910 10908 10906 10902 10897 10894 10892 10890 10888 10887 10889 10887 10879 10870 10863 10859 10857 10852 10846 10844 10843 10838 10833 10832 10832 10830 10828 10825 10823 10820
10832 10839 10842 10845 10850 10855 10860 10866 10870 10871 10872 10874 10874 10875 10878 10880 10880 10881 10882 10885 10887 10888 10888 10890 10893 10899 10904 10907 10907 10906 10906 10907 10909 10913 10916 10917 10918 10917 10915 10912 10911 10911 10912 10914 10916 10915 10912 10911 10911 10910 10910 10909 10908 10908 10907 10906 10905 10904 10902 10898 10895 10893 10890 10885 10881 10881 10882 10882 10879 10870 10859 10854 10852 10846 10841 10839 10838 10834 10829 10826 10824 10823 10822 10819 10817 10814
10826 10832 10836 10839 10842 10845 10850 10857 10862 10863 10863 10867 10870 10871 10872 10871 10871 10873 10874 10875 10877 10878 10879 10880 10886 10895 10899 10900 10899 10899 10900 10901 10904 10908 10911 10910 10911 10910 10907 10904 10904 10905 10906 10908 10911 10909 10905 10904 10904 10903 10902 10902 10901 10901 10900 10900 10900 10899 10897 10895 10893 10892 10888 10883 10879 10879 10880 10883 10883 10872 10856 10850 10848 10842 10837 10834 10831 10828 10825 10821 10819 10817 10815 10813 10811 10808
10819 10825 10830 10832 10833 10835 10840 10847 10852 10855 10857 10860 10864 10866 10865 10863 10863 10865 10865 10865 10867 10870 10872 10874 10881 10890 10893 10891 10890 10890 10893 10896 10899 10902 10904 10903 10904 10904 10899 10896 10897 10899 10900 10902 10904 10902 10898 10897 10896 10896 10895 10895 10894 10893 10893 10894 10894 10893 10892 10892 10892 10890 10886 10882 10881 10881 10880 10883 10883 10871 10856 10848 10845 10839 10833 10828 10824 10821 10819 10816 10814 10811 10809 10807 10804 10801
10811 10817 10821 10824 10825 10827 10832 10837 10844 10849 10853 10856 10857 10857 10856 10855 10856 10857 10858 10860 10861 10864 10867 10870 10877 10884 10883 10879 10879 10881 10885 10889 10892 10894 10895 10895 10896 10896 10893 10889 10888 10891 10893 10896 10897 10897 10894 10891 10889 10888 10888 10887 10887 10886 10886 10886 10886 10887 10888 10888 10889 10887 10882 10878 10877 10876 10875 10875 10873 10866 10856 10848 10841 10835 10828 10821 10818 10815 10812 10810 10807 10805 10803 10800 10797 10794
10805 10808 10812 10815 10817 10820 10824 10828 10835 10842 10847 10848 10847 10847 10848 10848 10849 10849 10851 10854 10855 10857 10862 10866 10871 10876 10873 10869 10871 10873 10877 10881 10883 10885 10886 10887 10888 10888 10885 10882 10882 10883 10885 10888 10890 10892 10890 10887 10884 10881 10880 10879 10879 10879 10879 10878 10879 10880 10881 10884 10885 10883 10879 10875 10872 10868 10867 10867 10864 10857 10851 10843 10836 10830 10822 10816 10813 10810 10806 10804 10801 10800 10797 10794 10790 10788
10797 10797 10802 10807 10809 10813 10817 10821 10826 10832 10837 10839 10839 10840 10842 10842 10841 10841 10842 10845 10849 10852 10856 10861 10865 10867 10865 10862 10864 10866 10868 10872 10874 10876 10878 10879 10881 10880 10877 10875 10876 10876 10877 10880 10882 10883 10882 10880 10878 10876 10873 10872 10873 10873 10872 10871 10872 10873 10875 10879 10881 10879 10875 10872 10867 10860 10857 10858 10855 10848 10842 10837 10830 10823 10816 10812 10809 10805 10801 10800 10798 10796 10793 10787 10784 10781
10789 10789 10793 10799 10803 10807 10811 10815 10818 10821 10826 10832 10833 10832 10834 10835 10834 10833 10832 10836 10842 10844 10846 10852 10856 10858 10858 10856 10856 10857 10860 10863 10866 10867 10869 10872 10875 10874 10871 10868 10867 10868 10870 10872 10871 10871 10870 10869 10870 10870 10868 10867 10866 10865 10864 10864 10866 10868 10870 10873 10876 10876 10873 10870 10863 10855 10849 10849 10847 10840 10834 10829 10822 10816 10811 10807 10804 10800 10797 10795 10794 10792 10787 10782 10778 10775
10783 10783 10785 10790 10796 10801 10806 10809 10810 10812 10818 10825 10825 10824 10825 10826 10825 10825 10824 10827 10832 10833 10835 10841 10846 10850 10851 10850 10848 10848 10851 10854 10856 10857 10861 10866 10868 10867 10863 10860 10858 10860 10862 10861 10859 10857 10857 10858 10861 10862 10861 10860 10859 10857 10857 10859 10861 10863 10863 10865 10868 10870 10868 10862 10856 10849 10844 10842 10841 10835 10828 10822 10816 10812 10808 10804 10800 10797 10793 10791 10789 10787 10783 10778 10773 10770
10776 10778 10779 10783 10789 10795 10799 10801 10803 10807 10810 10813 10814 10815 10816 10816 10815 10817 10816 10817 10821 10824 10825 10830 10836 10841 10845 10844 10843 10843 10843 10845 10847 10848 10852 10858 10859 10857 10854 10851 10850 10852 10852 10851 10848 10847 10847 10848 10850 10851 10851 10851 10851 10850 10851 10852 10853 10855 10855 10856 10858 10861 10860 10854 10847 10843 10839 10836 10833 10828 10822 10817 10813 10809 10805 10801 10797 10793 10789 10787 10784 10780 10777 10773 10768 10765
10767 10770 10773 10776 10780 10786 10791 10794 10797 10799 10800 10800 10802 10804 10807 10807 10807 10810 10809 10808 10811 10816 10818 10822 10828 10832 10836 10837 10837 10838 10837 10837 10838 10840 10844 10847 10847 10846 10844 10841 10840 10842 10844 10842 10840 10838 10838 10838 10840 10841 10840 10841 10841 10841 10842 10843 10844 10845 10846 10846 10847 10851 10852 10846 10839 10835 10832 10829 10825 10821 10816 10812 10808 10804 10800 10795 10791 10786 10782 10778 10775 10772 10769 10766 10761 10757
10755 10760 10766 10771 10773 10777 10782 10785 10787 10788 10788 10790 10791 10794 10798 10798 10799 10805 10805 10799 10801 10807 10811 10815 10820 10823 10827 10828 10828 10830 10829 10828 10830 10834 10836 10836 10835 10834 10833 10831 10830 10832 10835 10836 10834 10832 10829 10828 10830 10833 10832 10832 10832 10833 10833 10833 10833 10834 10834 10835 10836 10838 10839 10837 10832 10830 10827 10822 10817 10813 10809 10806 10801 10797 10794 10789 10783 10778 10772 10768 10765 10762 10759 10756 10753 10748
10746 10751 10758 10763 10765 10769 10773 10774 10777 10779 10780 10783 10785 10787 10790 10790 10794 10800 10798 10790 10793 10801 10804 10807 10811 10813 10817 10820 10820 10821 10820 10819 10821 10823 10824 10823 10822 10821 10821 10820 10821 10824 10826 10827 10827 10825 10822 10819 10821 10823 10824 10824 10823 10823 10824 10823 10821 10822 10822 10822 10823 10825 10826 10825 10824 10821 10818 10815 10810 10805 10801 10797 10793 10789 10785 10781 10775 10769 10763 10759 10755 10752 10750 10746 10743 10740
10736 10742 10749 10753 10757 10762 10765 10766 10768 10770 10772 10778 10782 10782 10783 10785 10787 10790 10787 10784 10789 10794 10796 10800 10802 10802 10805 10809 10809 10810 10811 10810 10811 10811 10811 10811 10811 10810 10810 10810 10812 10815 10818 10818 10818 10817 10814 10812 10811 10812 10813 10813 10813 10813 10814 10813 10812 10811 10811 10811 10812 10813 10813 10813 10812 10810 10808 10805 10801 10796 10791 10786 10781 10778 10775 10772 10768 10762 10756 10750 10745 10742 10740 10737 10735 10733
10729 10734 10740 10746 10749 10753 10758 10761 10762 10762 10765 10772 10777 10778 10779 10778 10777 10778 10779 10781 10784 10785 10788 10792 10792 10791 10794 10798 10798 10800 10801 10803 10803 10801 10801 10801 10799 10799 10801 10802 10803 10805 10807 10809 10810 10809 10807 10804 10803 10802 10802 10802 10802 10803 10802 10802 10802 10802 10802 10801 10801 10801 10801 10802 10801 10799 10797 10794 10790 10786 10781 10777 10772 10769 10767 10764 10761 10756 10748 10740 10734 10731 10731 10730 10729 10727
10721 10725 10731 10737 10742 10746 10752 10755 10756 10755 10758 10765 10770 10772 10773 10771 10768 10770 10773 10775 10776 10777 10778 10781 10782 10781 10783 10786 10788 10790 10791 10793 10793 10793 10792 10792 10791 10791 10793 10794 10794 10795 10797 10800 10802 10801 10799 10796 10794 10792 10792 10792 10792 10793 10793 10793 10793 10793 10792 10791 10791 10790 10791 10791 10789 10788 10786 10783 10779 10774 10770 10766 10763 10761 10760 10758 10758 10754 10744 10731 10722 10720 10722 10722 10719 10717
10714 10718 10723 10729 10735 10739 10743 10747 10749 10749 10753 10759 10762 10763 10765 10764 10763 10765 10767 10766 10767 10769 10770 10770 10772 10772 10773 10775 10777 10779 10779 10780 10781 10782 10783 10784 10784 10784 10784 10784 10785 10787 10790 10792 10792 10792 10791 10789 10786 10784 10783 10782 10782 10782 10782 10783 10782 10782 10782 10782 10781 10781 10781 10780 10778 10775 10772 10769 10766 10762 10757 10754 10752 10750 10749 10750 10751 10748 10738 10726 10716 10712 10712 10711 10707 10704
10708 10712 10716 10722 10727 10731 10734 10738 10741 10743 10747 10752 10753 10753 10756 10757 10756 10758 10759 10759 10760 10761 10761 10761 10762 10763 10764 10766 10767 10768 10768 10768 10769 10771 10772 10774 10776 10777 10776 10776 10776 10778 10781 10782 10782 10782 10781 10780 10778 10777 10775 10773 10772 10772 10771 10771 10770 10770 10770 10770 10770 10771 10770 10769 10766 10761 10757 10755 10751 10747 10744 10741 10738 10736 10736 10736 10735 10734 10730 10724 10716 10708 10704 10702 10699 10695
10700 10705 10710 10715 10719 10722 10725 10729 10732 10734 10738 10742 10742 10744 10747 10748 10748 10750 10752 10752 10754 10754 10753 10753 10754 10755 10757 10758 10760 10760 10759 10759 10759 10759 10760 10763 10766 10768 10768 10768 10768 10768 10770 10771 10771 10771 10770 10769 10769 10768 10767 10765 10763 10762 10762 10761 10760 10760 10760 10760 10760 10760 10759 10758 10755 10747 10741 10739 10736 10733 10731 10728 10725 10724 10723 10722 10721 10721 10720 10717 10711 10704 10699 10695 10691 10688
10691 10697 10702 10705 10709 10713 10716 10719 10722 10725 10729 10731 10732 10735 10738 10739 10741 10743 10745 10747 10747 10747 10746 10747 10748 10750 10751 10753 10753 10752 10751 10751 10752 10751 10751 10752 10754 10756 10758 10759 10759 10759 10760 10760 10761 10761 10760 10760 10759 10759 10758 10757 10756 10754 10754 10753 10752 10752 10752 10752 10752 10750 10749 10751 10749 10740 10730 10726 10724 10721 10720 10719 10717 10716 10715 10712 10711 10711 10709 10705 10700 10696 10691 10686 10682 10678
10682 10688 10692 10696 10700 10702 10705 10709 10714 10717 10719 10721 10724 10727 10730 10732 10734 10736 10738 10740 10739 10737 10738 10741 10742 10744 10746 10746 10746 10746 10745 10745 10745 10745 10745 10746 10746 10748 10749 10750 10750 10750 10750 10750 10751 10751 10751 10750 10750 10749 10748 10748 10747 10747 10746 10746 10745 10745 10745 10745 10744 10742 10739 10740 10738 10732 10723 10717 10713 10712 10712 10711 10709 10708 10706 10705 10703 10701 10697 10693 10689 10685 10681 10677 10673 10669
10675 10679 10683 10687 10690 10693 10696 10701 10706 10708 10710 10713 10717 10720 10723 10726 10727 10728 10729 10730 10729 10729 10731 10733 10734 10737 10738 10740 10741 10741 10739 10737 10736 10738 10740 10741 10741 10742 10742 10741 10741 10741 10741 10741 10742 10741 10741 10740 10739 10739 10739 10738 10738 10738 10737 10736 10736 10737 10737 10737 10735 10733 10730 10725 10721 10717 10712 10707 10704 10704 10703 10702 10701 10700 10698 10696 10694 10691 10686 10682 10677 10674 10670 10666 10662 10657
10670 10671 10675 10679 10681 10684 10688 10691 10695 10698 10702 10705 10708 10710 10714 10717 10720 10722 10721 10720 10720 10722 10723 10724 10726 10728 10729 10731 10733 10733 10730 10729 10730 10732 10733 10734 10734 10734 10733 10732 10732 10731 10731 10732 10732 10732 10731 10730 10729 10729 10730 10729 10729 10728 10727 10727 10728 10728 10728 10728 10727 10723 10718 10713 10708 10704 10700 10696 10694 10693 10692 10691 10691 10691 10689 10687 10683 10679 10674 10670 10666 10663 10659 10654 10649 10643
10663 10664 10669 10672 10673 10676 10680 10683 10687 10691 10694 10697 10700 10702 10705 10708 10712 10713 10712 10710 10711 10714 10714 10715 10718 10719 10717 10717 10720 10722 10722 10723 10725 10725 10726 10726 10726 10726 10725 10724 10722 10721 10721 10721 10722 10722 10722 10722 10721 10721 10721 10720 10720 10719 10719 10721 10721 10719 10718 10721 10719 10712 10704 10699 10696 10694 10691 10687 10685 10683 10681 10680 10679 10678 10676 10673 10668 10664 10660 10657 10654 10649 10645 10640 10634 10629